AAL111 KLAX-KLAS

Flight info

Callsign AAL111
Flight time 0h 55m
Altitude 29000
Route ORCKA5 MISEN RNDRZ4
Aircraft B789/H-SDE1E2E3FGHIJ2J3J4J5M1RWXY/LB1D1

Departure

Time 2026-05-05 17:39
Airport Los Angeles International Airport (KLAX)

Arrival

Time 2026-05-05 18:34
Airport Harry Reid International Airport (KLAS)
Time Latitude Longitude Altitude Speed Heading
2026-05-05 17:19 33.94403 -118.41132 120 ft 0 kts 83°
2026-05-05 17:27 33.94403 -118.41136 119 ft 2 kts 83°
2026-05-05 17:27 33.94401 -118.41154 119 ft 2 kts 83°
2026-05-05 17:28 33.94399 -118.41172 119 ft 2 kts 83°
2026-05-05 17:28 33.94398 -118.41190 119 ft 2 kts 83°
2026-05-05 17:28 33.94397 -118.41208 119 ft 2 kts 99°
2026-05-05 17:28 33.94402 -118.41225 119 ft 2 kts 123°
2026-05-05 17:29 33.94412 -118.41239 119 ft 2 kts 145°
2026-05-05 17:29 33.94426 -118.41247 119 ft 2 kts 167°
2026-05-05 17:29 33.94433 -118.41248 119 ft 1 kts 174°
2026-05-05 17:29 33.94434 -118.41248 119 ft 0 kts 174°
2026-05-05 17:31 33.94424 -118.41247 119 ft 4 kts 173°
2026-05-05 17:32 33.94377 -118.41239 119 ft 8 kts 173°
2026-05-05 17:32 33.94310 -118.41229 119 ft 11 kts 173°
2026-05-05 17:32 33.94227 -118.41217 121 ft 13 kts 173°
2026-05-05 17:32 33.94136 -118.41204 121 ft 14 kts 174°
2026-05-05 17:33 33.94033 -118.41189 122 ft 16 kts 173°
2026-05-05 17:33 33.93924 -118.41174 124 ft 16 kts 173°
2026-05-05 17:33 33.93816 -118.41156 125 ft 16 kts 169°
2026-05-05 17:33 33.93772 -118.41054 125 ft 17 kts 83°
2026-05-05 17:34 33.93787 -118.40911 125 ft 18 kts 83°
2026-05-05 17:34 33.93802 -118.40762 125 ft 18 kts 83°
2026-05-05 17:34 33.93818 -118.40602 124 ft 21 kts 83°
2026-05-05 17:34 33.93836 -118.40419 120 ft 23 kts 83°
2026-05-05 17:35 33.93856 -118.40218 119 ft 24 kts 83°
2026-05-05 17:35 33.93879 -118.40014 116 ft 25 kts 83°
2026-05-05 17:35 33.93900 -118.39799 112 ft 27 kts 84°
2026-05-05 17:35 33.93921 -118.39573 109 ft 27 kts 84°
2026-05-05 17:36 33.93947 -118.39347 106 ft 28 kts 83°
2026-05-05 17:36 33.93970 -118.39120 105 ft 27 kts 83°
2026-05-05 17:36 33.93992 -118.38899 102 ft 26 kts 83°
2026-05-05 17:36 33.94013 -118.38690 102 ft 24 kts 83°
2026-05-05 17:37 33.94035 -118.38496 102 ft 23 kts 83°
2026-05-05 17:37 33.94007 -118.38337 99 ft 18 kts 154°
2026-05-05 17:37 33.93955 -118.38360 100 ft 8 kts 249°
2026-05-05 17:37 33.93952 -118.38372 100 ft 0 kts 258°
2026-05-05 17:38 33.93949 -118.38389 100 ft 11 kts 259°
2026-05-05 17:38 33.93912 -118.38729 103 ft 70 kts 263°
2026-05-05 17:38 33.93831 -118.39525 109 ft 123 kts 263°
2026-05-05 17:39 33.93711 -118.40726 220 ft 158 kts 263°
2026-05-05 17:39 33.93578 -118.41985 801 ft 155 kts 262°
2026-05-05 17:39 33.93425 -118.43288 1320 ft 158 kts 262°
2026-05-05 17:39 33.93270 -118.44577 1884 ft 158 kts 262°
2026-05-05 17:40 33.93101 -118.45933 2297 ft 169 kts 259°
2026-05-05 17:40 33.92754 -118.47309 2818 ft 172 kts 250°
2026-05-05 17:40 33.92323 -118.48606 3486 ft 165 kts 249°
2026-05-05 17:40 33.91863 -118.49867 3994 ft 167 kts 248°
2026-05-05 17:41 33.91388 -118.51174 4405 ft 175 kts 248°
2026-05-05 17:41 33.90884 -118.52543 4998 ft 189 kts 248°
2026-05-05 17:41 33.90351 -118.53974 5975 ft 192 kts 248°
2026-05-05 17:41 33.89621 -118.55335 6826 ft 203 kts 226°
2026-05-05 17:42 33.88372 -118.56268 7589 ft 219 kts 202°
2026-05-05 17:42 33.87002 -118.56492 8033 ft 199 kts 169°
2026-05-05 17:42 33.85838 -118.55520 8492 ft 219 kts 120°
2026-05-05 17:42 33.85598 -118.53711 9213 ft 232 kts 75°
2026-05-05 17:43 33.86480 -118.52063 9931 ft 246 kts 41°
2026-05-05 17:43 33.87685 -118.50510 10630 ft 267 kts 51°
2026-05-05 17:43 33.88908 -118.48770 11474 ft 280 kts 44°
2026-05-05 17:43 33.90313 -118.47063 12397 ft 292 kts 44°
2026-05-05 17:44 33.91762 -118.45307 13354 ft 301 kts 43°
2026-05-05 17:44 33.93216 -118.43475 14363 ft 308 kts 50°
2026-05-05 17:44 33.94404 -118.41315 15387 ft 313 kts 56°
2026-05-05 17:44 33.95647 -118.39151 16416 ft 317 kts 54°
2026-05-05 17:45 33.96889 -118.36949 17444 ft 320 kts 54°
2026-05-05 17:45 33.98149 -118.34734 18484 ft 323 kts 54°
2026-05-05 17:45 33.99416 -118.32491 19538 ft 324 kts 54°
2026-05-05 17:45 34.00687 -118.30246 20600 ft 324 kts 54°
2026-05-05 17:46 34.01958 -118.28004 21664 ft 323 kts 54°
2026-05-05 17:46 34.03229 -118.25765 22580 ft 326 kts 54°
2026-05-05 17:46 34.04517 -118.23492 23396 ft 332 kts 53°
2026-05-05 17:46 34.05828 -118.21181 24201 ft 336 kts 54°
2026-05-05 17:47 34.07147 -118.18850 24973 ft 340 kts 53°
2026-05-05 17:47 34.08491 -118.16477 25734 ft 343 kts 53°
2026-05-05 17:47 34.09839 -118.14088 26479 ft 345 kts 54°
2026-05-05 17:47 34.11200 -118.11683 27227 ft 347 kts 54°
2026-05-05 17:48 34.12556 -118.09278 27969 ft 348 kts 54°
2026-05-05 17:48 34.13913 -118.06870 28610 ft 350 kts 54°
2026-05-05 17:48 34.15300 -118.04412 28992 ft 359 kts 54°
2026-05-05 17:48 34.16737 -118.01863 29054 ft 380 kts 54°
2026-05-05 17:49 34.18289 -117.99106 29050 ft 402 kts 54°
2026-05-05 17:49 34.19909 -117.96227 29038 ft 424 kts 54°
2026-05-05 17:49 34.21612 -117.93194 29035 ft 446 kts 54°
2026-05-05 17:49 34.23409 -117.90001 29022 ft 465 kts 54°
2026-05-05 17:50 34.25245 -117.86726 29028 ft 469 kts 54°
2026-05-05 17:50 34.28919 -117.80169 29022 ft 470 kts 54°
2026-05-05 17:51 34.32609 -117.73569 29010 ft 470 kts 54°
2026-05-05 17:51 34.36328 -117.67041 28999 ft 468 kts 52°
2026-05-05 17:52 34.40194 -117.60596 28996 ft 470 kts 52°
2026-05-05 17:52 34.44032 -117.54164 28983 ft 468 kts 52°
2026-05-05 17:53 34.47860 -117.47739 29002 ft 467 kts 52°
2026-05-05 17:53 34.51654 -117.41356 29014 ft 466 kts 52°
2026-05-05 17:54 34.55479 -117.34909 29042 ft 467 kts 53°
2026-05-05 17:54 34.59299 -117.28459 29021 ft 466 kts 53°
2026-05-05 17:55 34.63081 -117.22063 28992 ft 466 kts 53°
2026-05-05 17:55 34.66874 -117.15635 28994 ft 465 kts 53°
2026-05-05 17:56 34.70652 -117.09225 28978 ft 463 kts 53°
2026-05-05 17:56 34.74415 -117.02820 28967 ft 463 kts 53°
2026-05-05 17:57 34.78183 -116.96399 28972 ft 465 kts 53°
2026-05-05 17:57 34.81964 -116.89942 28986 ft 468 kts 53°
2026-05-05 17:58 34.85755 -116.83466 28988 ft 466 kts 53°
2026-05-05 17:58 34.89524 -116.77010 28991 ft 465 kts 53°
2026-05-05 17:59 34.93264 -116.70531 28961 ft 464 kts 54°
2026-05-05 17:59 34.95094 -116.67285 28648 ft 452 kts 54°
2026-05-05 17:59 34.96859 -116.64161 28226 ft 440 kts 54°
2026-05-05 17:59 34.98573 -116.61131 27830 ft 427 kts 54°
2026-05-05 18:00 35.00243 -116.58167 27420 ft 418 kts 54°
2026-05-05 18:00 35.01905 -116.55222 27010 ft 419 kts 54°
2026-05-05 18:00 35.03542 -116.52316 26611 ft 421 kts 54°
2026-05-05 18:00 35.05183 -116.49399 26213 ft 422 kts 54°
2026-05-05 18:01 35.06871 -116.46396 25813 ft 421 kts 54°
2026-05-05 18:01 35.08529 -116.43444 25412 ft 419 kts 54°
2026-05-05 18:01 35.10147 -116.40585 25016 ft 415 kts 53°
2026-05-05 18:01 35.11921 -116.38033 24595 ft 412 kts 44°
2026-05-05 18:02 35.13942 -116.35566 24184 ft 408 kts 45°
2026-05-05 18:02 35.15899 -116.33045 23724 ft 405 kts 46°
2026-05-05 18:02 35.17855 -116.30546 23263 ft 402 kts 46°
2026-05-05 18:02 35.19786 -116.28051 22817 ft 399 kts 46°
2026-05-05 18:03 35.21688 -116.25593 22383 ft 397 kts 46°
2026-05-05 18:03 35.23530 -116.23091 21943 ft 396 kts 50°
2026-05-05 18:03 35.25248 -116.20474 21509 ft 394 kts 48°
2026-05-05 18:03 35.27138 -116.18060 21079 ft 391 kts 46°
2026-05-05 18:04 35.28966 -116.15618 20650 ft 388 kts 47°
2026-05-05 18:04 35.30786 -116.13169 20223 ft 386 kts 47°
2026-05-05 18:04 35.32592 -116.10705 19794 ft 383 kts 47°
2026-05-05 18:04 35.34372 -116.08273 19370 ft 381 kts 47°
2026-05-05 18:05 35.36127 -116.05866 18963 ft 379 kts 47°
2026-05-05 18:05 35.37870 -116.03475 18663 ft 375 kts 47°
2026-05-05 18:05 35.39607 -116.01086 18406 ft 374 kts 47°
2026-05-05 18:05 35.41341 -115.98699 18155 ft 373 kts 47°
2026-05-05 18:06 35.43060 -115.96332 17894 ft 372 kts 47°
2026-05-05 18:06 35.44220 -115.94734 17717 ft 370 kts 47°
2026-05-05 18:06 35.46500 -115.91588 17379 ft 369 kts 47°
2026-05-05 18:06 35.48207 -115.89233 17118 ft 367 kts 48°
2026-05-05 18:07 35.49906 -115.86890 16787 ft 368 kts 48°
2026-05-05 18:07 35.51605 -115.84537 16496 ft 364 kts 48°
2026-05-05 18:07 35.53291 -115.82204 16232 ft 362 kts 48°
2026-05-05 18:07 35.54963 -115.79891 15964 ft 361 kts 48°
2026-05-05 18:08 35.56640 -115.77569 15688 ft 359 kts 48°
2026-05-05 18:08 35.58286 -115.75284 15362 ft 350 kts 48°
2026-05-05 18:08 35.59856 -115.73131 14983 ft 323 kts 47°
2026-05-05 18:08 35.61328 -115.71157 14797 ft 304 kts 47°
2026-05-05 18:09 35.62741 -115.69246 14546 ft 300 kts 48°
2026-05-05 18:09 35.64162 -115.67329 14311 ft 302 kts 48°
2026-05-05 18:09 35.65601 -115.65383 14072 ft 304 kts 48°
2026-05-05 18:09 35.67027 -115.63457 13811 ft 303 kts 48°
2026-05-05 18:10 35.68454 -115.61525 13558 ft 303 kts 48°
2026-05-05 18:10 35.69872 -115.59606 13311 ft 302 kts 48°
2026-05-05 18:10 35.71287 -115.57689 13060 ft 301 kts 48°
2026-05-05 18:10 35.72684 -115.55815 12972 ft 295 kts 46°
2026-05-05 18:11 35.74329 -115.54296 12971 ft 299 kts 28°
2026-05-05 18:11 35.76220 -115.53183 13002 ft 300 kts 28°
2026-05-05 18:11 35.78044 -115.51909 12983 ft 300 kts 31°
2026-05-05 18:11 35.79873 -115.50646 12978 ft 299 kts 30°
2026-05-05 18:12 35.81681 -115.49377 12990 ft 300 kts 31°
2026-05-05 18:12 35.83498 -115.48107 12994 ft 300 kts 30°
2026-05-05 18:12 35.85326 -115.46822 12964 ft 300 kts 30°
2026-05-05 18:12 35.87144 -115.45547 12974 ft 299 kts 30°
2026-05-05 18:13 35.88939 -115.44287 13021 ft 284 kts 30°
2026-05-05 18:13 35.90594 -115.43126 13039 ft 262 kts 30°
2026-05-05 18:13 35.92137 -115.42049 12924 ft 250 kts 30°
2026-05-05 18:13 35.93646 -115.40997 12641 ft 248 kts 31°
2026-05-05 18:14 35.95149 -115.39949 12342 ft 251 kts 31°
2026-05-05 18:14 35.96681 -115.38878 11899 ft 255 kts 31°
2026-05-05 18:14 35.98228 -115.37798 11502 ft 252 kts 31°
2026-05-05 18:14 35.99755 -115.36730 11129 ft 249 kts 31°
2026-05-05 18:15 36.01129 -115.35554 10995 ft 234 kts 47°
2026-05-05 18:15 36.01778 -115.33755 10987 ft 237 kts 85°
2026-05-05 18:15 36.01600 -115.31684 10713 ft 245 kts 101°
2026-05-05 18:15 36.01377 -115.29583 10343 ft 246 kts 94°
2026-05-05 18:16 36.01261 -115.27471 9966 ft 245 kts 95°
2026-05-05 18:16 36.01141 -115.25391 9589 ft 242 kts 94°
2026-05-05 18:16 36.01035 -115.23305 9217 ft 239 kts 94°
2026-05-05 18:16 36.00933 -115.21281 8986 ft 231 kts 94°
2026-05-05 18:17 36.00834 -115.19307 9004 ft 231 kts 94°
2026-05-05 18:17 36.00732 -115.17306 9012 ft 237 kts 94°
2026-05-05 18:17 36.00628 -115.15252 9007 ft 239 kts 94°
2026-05-05 18:17 36.00525 -115.13206 9005 ft 236 kts 94°
2026-05-05 18:18 36.00425 -115.11227 8992 ft 228 kts 94°
2026-05-05 18:18 36.00324 -115.09241 8763 ft 233 kts 95°
2026-05-05 18:18 36.00221 -115.07231 8397 ft 234 kts 94°
2026-05-05 18:18 36.00120 -115.05238 8051 ft 231 kts 94°
2026-05-05 18:19 36.00022 -115.03319 7981 ft 217 kts 94°
2026-05-05 18:19 35.99929 -115.01499 8010 ft 211 kts 94°
2026-05-05 18:19 35.99932 -114.99681 8000 ft 212 kts 89°
2026-05-05 18:19 35.99970 -114.97852 8000 ft 215 kts 90°
2026-05-05 18:20 36.00007 -114.95987 7993 ft 216 kts 89°
2026-05-05 18:20 36.00041 -114.94136 7990 ft 215 kts 89°
2026-05-05 18:20 36.00081 -114.92281 7987 ft 216 kts 90°
2026-05-05 18:20 36.00122 -114.90432 7981 ft 216 kts 90°
2026-05-05 18:21 36.00164 -114.88572 7972 ft 216 kts 89°
2026-05-05 18:21 36.00204 -114.86723 7963 ft 216 kts 90°
2026-05-05 18:21 36.00245 -114.84869 7961 ft 216 kts 89°
2026-05-05 18:21 36.00286 -114.82996 7959 ft 216 kts 89°
2026-05-05 18:22 36.00326 -114.81149 7955 ft 216 kts 90°
2026-05-05 18:22 36.00371 -114.79303 7948 ft 215 kts 89°
2026-05-05 18:22 36.00415 -114.77453 7951 ft 215 kts 89°
2026-05-05 18:22 36.00458 -114.75615 7946 ft 214 kts 89°
2026-05-05 18:23 36.00494 -114.73777 7941 ft 213 kts 89°
2026-05-05 18:23 36.00532 -114.71955 7938 ft 213 kts 89°
2026-05-05 18:23 36.00566 -114.70107 7939 ft 213 kts 89°
2026-05-05 18:23 36.00603 -114.68276 7939 ft 213 kts 89°
2026-05-05 18:24 36.00639 -114.66442 7943 ft 213 kts 89°
2026-05-05 18:24 36.00675 -114.64605 7950 ft 214 kts 90°
2026-05-05 18:24 36.00732 -114.62769 7934 ft 214 kts 86°
2026-05-05 18:24 36.01229 -114.61026 7631 ft 222 kts 54°
2026-05-05 18:25 36.02504 -114.60047 7324 ft 220 kts 12°
2026-05-05 18:25 36.03513 -114.60100 7123 ft 217 kts 343°
2026-05-05 18:25 36.04907 -114.61732 6761 ft 211 kts 292°
2026-05-05 18:25 36.05424 -114.63434 6559 ft 213 kts 290°
2026-05-05 18:26 36.05985 -114.65135 6308 ft 214 kts 290°
2026-05-05 18:26 36.06539 -114.66836 6058 ft 213 kts 290°
2026-05-05 18:26 36.07094 -114.68539 5806 ft 212 kts 290°
2026-05-05 18:26 36.07554 -114.70257 5541 ft 210 kts 279°
2026-05-05 18:27 36.07642 -114.72052 5279 ft 207 kts 269°
2026-05-05 18:27 36.07692 -114.73823 5032 ft 207 kts 270°
2026-05-05 18:27 36.07673 -114.75577 4941 ft 201 kts 266°
2026-05-05 18:27 36.07680 -114.77318 4962 ft 205 kts 271°
2026-05-05 18:28 36.07707 -114.80859 4964 ft 207 kts 268°
2026-05-05 18:28 36.07695 -114.82612 4970 ft 199 kts 268°
2026-05-05 18:28 36.07678 -114.84315 4963 ft 195 kts 268°
2026-05-05 18:29 36.07664 -114.85988 4975 ft 194 kts 268°
2026-05-05 18:29 36.07646 -114.87670 4935 ft 195 kts 267°
2026-05-05 18:29 36.07593 -114.89343 4848 ft 191 kts 265°
2026-05-05 18:29 36.07529 -114.90911 4832 ft 181 kts 264°
2026-05-05 18:30 36.07421 -114.92445 4839 ft 177 kts 262°
2026-05-05 18:30 36.07293 -114.93978 5118 ft 180 kts 263°
2026-05-05 18:30 36.07270 -114.95590 5078 ft 183 kts 271°
2026-05-05 18:30 36.07359 -114.97098 4906 ft 168 kts 272°
2026-05-05 18:31 36.07425 -114.98488 4706 ft 156 kts 268°
2026-05-05 18:31 36.07413 -114.99833 4538 ft 158 kts 264°
2026-05-05 18:31 36.07372 -115.01191 4307 ft 158 kts 268°
2026-05-05 18:31 36.07369 -115.02544 4104 ft 159 kts 267°
2026-05-05 18:32 36.07368 -115.03921 3827 ft 161 kts 268°
2026-05-05 18:32 36.07364 -115.05295 3565 ft 158 kts 268°
2026-05-05 18:32 36.07376 -115.06662 3233 ft 159 kts 267°
2026-05-05 18:32 36.07366 -115.08017 2920 ft 156 kts 266°
2026-05-05 18:33 36.07369 -115.09352 2625 ft 156 kts 268°
2026-05-05 18:33 36.07370 -115.10687 2369 ft 153 kts 268°
2026-05-05 18:33 36.07370 -115.12015 2179 ft 155 kts 267°
2026-05-05 18:33 36.07366 -115.13343 2079 ft 150 kts 268°
2026-05-05 18:34 36.07361 -115.14559 2104 ft 129 kts 269°
2026-05-05 18:34 36.07370 -115.15249 2130 ft 46 kts 282°
2026-05-05 18:34 36.07455 -115.15484 2137 ft 21 kts 298°
2026-05-05 18:34 36.07471 -115.15519 2138 ft 0 kts 301°
2026-05-05 18:37 36.07472 -115.15520 2139 ft 1 kts 301°
2026-05-05 18:37 36.07506 -115.15583 2141 ft 13 kts 311°
2026-05-05 18:37 36.07573 -115.15667 2143 ft 15 kts 315°
2026-05-05 18:38 36.07657 -115.15772 2145 ft 18 kts 314°
2026-05-05 18:38 36.07758 -115.15823 2145 ft 16 kts 11°
2026-05-05 18:38 36.07802 -115.15715 2140 ft 16 kts 88°
2026-05-05 18:38 36.07804 -115.15566 2134 ft 18 kts 90°
2026-05-05 18:39 36.07803 -115.15402 2128 ft 20 kts 91°
2026-05-05 18:39 36.07805 -115.15223 2121 ft 21 kts 91°
2026-05-05 18:39 36.07801 -115.15037 2114 ft 23 kts 93°
2026-05-05 18:39 36.07788 -115.14837 2106 ft 24 kts 96°
2026-05-05 18:40 36.07772 -115.14631 2102 ft 24 kts 95°
2026-05-05 18:40 36.07760 -115.14416 2094 ft 26 kts 95°
2026-05-05 18:40 36.07754 -115.14192 2088 ft 26 kts 90°
2026-05-05 18:40 36.07753 -115.13961 2080 ft 28 kts 90°
2026-05-05 18:41 36.07753 -115.13720 2074 ft 28 kts 89°
2026-05-05 18:41 36.07754 -115.13505 2067 ft 15 kts 90°
2026-05-05 18:41 36.07762 -115.13399 2064 ft 12 kts 60°
2026-05-05 18:41 36.07841 -115.13376 2062 ft 12 kts 357°
2026-05-05 18:42 36.07927 -115.13376 2060 ft 12 kts
2026-05-05 18:42 36.08010 -115.13376 2058 ft 12 kts
2026-05-05 18:42 36.08091 -115.13375 2057 ft 12 kts
2026-05-05 18:42 36.08165 -115.13391 2056 ft 10 kts 315°
2026-05-05 18:43 36.08175 -115.13451 2058 ft 5 kts 249°
2026-05-05 18:43 36.08170 -115.13464 2059 ft 0 kts 245°
2026-05-05 18:43 36.08160 -115.13490 2060 ft 5 kts 245°
2026-05-05 18:43 36.08145 -115.13532 2062 ft 4 kts 247°
2026-05-05 18:44 36.08140 -115.13545 2062 ft 0 kts 246°
2026-05-05 18:44 36.08140 -115.13546 2062 ft 0 kts 246°